Denver, CO

6:05 AM MST on December 16, 2019 (GMT -0700)
Denver International

Weather History for KDEN - November, 2019

Change the Weather History Date:

Sunday, November 17, 2019

  Actual Average Record
Temperature  
Mean Temperature 41 °F 38 °F  
Max Temperature 59 °F 51 °F 76 °F (1999)
Min Temperature 23 °F 24 °F -14 °F (1880)
Degree Days  
Heating Degree Days 24 27  
Month to date heating degree days 417 405  
Since 1 July heating degree days 1092 986  
Cooling Degree Days 0 0  
Month to date cooling degree days 0 0  
Year to date cooling degree days 916 769  
Moisture  
Dew Point 23 °F    
Average Humidity 55    
Maximum Humidity 88    
Minimum Humidity 21    
Precipitation  
Precipitation 0.00 in 0.02 in 0.46 in (1921)
Month to date precipitation 0.04 0.39  
Year to date precipitation 13.94 13.73  
Snow  
Snow 0.00 in - - ()
Month to date snowfall 1.2  
Since 1 July snowfall 13.7  
Since 1 September snowfall 13.7  
Snow Depth 0.00 in    
Sea Level Pressure  
Sea Level Pressure 30.04 in    
Wind  
Wind Speed 8 mph (SSW)    
Max Wind Speed 20 mph    
Max Gust Speed 23 mph    
Visibility 10 miles    
Events      
T = Trace of Precipitation, MM = Missing Value Source: NWS Daily Summary

Daily Weather History Graph

Daily Weather History Graph

Search for Another Location

Airport or City:

Astronomy

Nov. 17, 2019 Rise Set
Actual Time 6:45 AM MST 4:41 PM MST
Civil Twilight 6:16 AM MST 5:10 PM MST
Nautical Twilight 5:43 AM MST 5:43 PM MST
Astronomical Twilight 5:11 AM MST 6:15 PM MST
Moon 9:20 PM MST (11/17) 11:33 AM MST (11/17)
Length of Visible Light 10h 53m
Length of Day
9h 55m
Waning Gibbous, 73% of the Moon is Illuminated
Nov 17
Waning Gibbous
Nov 19
Last Quarter
Nov 26
New
Dec 3
First Quarter
Dec 11
Full

Hourly Weather History & Observations

Time (MST) Temp. Windchill Dew Point Humidity Pressure Visibility Wind Dir Wind Speed Gust Speed Precip Events Conditions
12:53 AM 33.1 °F 24.9 °F 28.9 °F 85% 30.16 in 10.0 mi SSW 10.4 mph - N/A   Scattered Clouds
1:53 AM 33.1 °F 24.9 °F 28.0 °F 82% 30.14 in 10.0 mi SSW 10.4 mph - N/A   Clear
2:53 AM 32.0 °F 23.0 °F 26.1 °F 79% 30.14 in 10.0 mi SSW 11.5 mph - N/A   Clear
3:53 AM 28.9 °F 20.4 °F 24.1 °F 82% 30.15 in 10.0 mi SSW 9.2 mph - N/A   Clear
4:53 AM 24.1 °F 13.7 °F 21.0 °F 88% 30.19 in 10.0 mi South 10.4 mph - N/A   Partly Cloudy
5:53 AM 24.1 °F 12.5 °F 21.0 °F 88% 30.17 in 10.0 mi South 12.7 mph - N/A   Scattered Clouds
6:53 AM 25.0 °F 14.8 °F 21.9 °F 88% 30.19 in 10.0 mi SSE 10.4 mph - N/A   Partly Cloudy
7:53 AM 30.9 °F 22.8 °F 25.0 °F 79% 30.17 in 10.0 mi South 9.2 mph - N/A   Partly Cloudy
8:53 AM 43.0 °F 36.0 °F 28.0 °F 56% 30.11 in 10.0 mi South 13.8 mph - N/A   Partly Cloudy
9:53 AM 46.9 °F - 26.1 °F 44% 30.08 in 10.0 mi SSE 17.3 mph - N/A   Partly Cloudy
10:53 AM 52.0 °F - 24.1 °F 34% 30.05 in 10.0 mi SE 9.2 mph - N/A   Partly Cloudy
11:53 AM 55.0 °F - 19.9 °F 25% 30.00 in 10.0 mi Calm Calm - N/A   Scattered Clouds
12:53 PM 55.9 °F - 19.0 °F 24% 29.97 in 10.0 mi Calm Calm - N/A   Mostly Cloudy
1:53 PM 57.0 °F - 19.9 °F 24% 29.95 in 10.0 mi Calm Calm - N/A   Mostly Cloudy
2:53 PM 59.0 °F - 19.9 °F 22% 29.94 in 10.0 mi Calm Calm - N/A   Mostly Cloudy
3:53 PM 54.0 °F - 21.9 °F 29% 29.99 in 10.0 mi NE 4.6 mph - N/A   Mostly Cloudy
4:53 PM 53.1 °F - 21.0 °F 29% 30.00 in 10.0 mi Calm Calm - N/A   Mostly Cloudy
5:53 PM 46.9 °F - 23.0 °F 39% 30.02 in 10.0 mi SSE 8.1 mph - N/A   Mostly Cloudy
6:53 PM 48.0 °F - 23.0 °F 37% 29.99 in 10.0 mi South 13.8 mph - N/A   Mostly Cloudy
7:53 PM 46.9 °F - 24.1 °F 41% 29.99 in 10.0 mi WSW 8.1 mph - N/A   Mostly Cloudy
8:53 PM 46.9 °F - 25.0 °F 42% 29.94 in 10.0 mi SW 4.6 mph - N/A   Mostly Cloudy
9:53 PM 52.0 °F - 26.1 °F 37% 29.88 in 10.0 mi WNW 12.7 mph - N/A   Mostly Cloudy
10:53 PM 46.9 °F - 26.1 °F 44% 29.86 in 10.0 mi WSW 6.9 mph - N/A   Scattered Clouds
11:53 PM 50.0 °F - 28.0 °F 43% 29.84 in 10.0 mi West 12.7 mph - N/A   Partly Cloudy